SCP
0 0 0 0 0 0 0 0 0 0 0 0 0 0 0 0 0 0 0 0 0 0 0 0 0 0 0 0 0 0 0 0 -0 0 0 0 0 0 0 0 0 0 0 0
0 0 0 0 0 0 0 0 0 0 0 0 0 0 0 0 0 0 0 0 0 0 0 0 0 0 0 0 0 0 0 0 0 0 0 0 0 0 0 0 0 0 0 0
0 0 0 0 0 0 0 0 0 0 0 0 0 0 0 0 0 0 0 0 0 0 0 0 0 0 0 0 0 0 0 0 0 0 0 0 0 0 0 0 0 -0 0 0
0 0 0 0 0 0 0 0 0 0 0 0 0 0 0 0 0 0 0 0 0 0 0 0 0 0 0 0 0 -0 0 0 0 0 0 0 -0 0 -0 -0 -0 -0 -0 -0
0 0 0 0 0 0 0 0 0 0 0 0 0 0 0 0 0 0 0 0 0 0 0 0 0 0 0 0 -0 0 0 0 0 0 -0 -0 0 0 0 0 0 0 0 0
0 0 0 0 0 0 0 0 0 0 0 0 0 0 0 0 0 0 0 0 0 0 0 0 0 0 0 0 0 0 0 0 -0 -0 -0 -0 -0 -0 -0 -0 -0 -0 -0 0
0 0 0 0 0 0 0 0 0 0 0 0 0 0 0 0 0 0 0 0 0 0 0 0 0 -0 0 0 0 0 0 -0 -0 -0 -0 -0 -0 -0 -0 -0 -0 -0 -0 0
0 0 0 0 0 0 0 0 0 0 0 0 0 0 0 0 0 0 0 0 0 0 0 0 0 -0 0 0 0 0 0 -0 -0 -0 -0 -0 -0 -0 -0 -0 -0 -0 0 0
0 0 0 0 0 0 0 0 0 0 0 0 0 0 0 0 0 0 0 0 0 0 0 -0 0 0 0 0 0 0 -0 -0 -0 -0 -0 -0 -0 -0 -0 -0 0 -0 -0 0
0 0 0 0 0 0 0 0 0 0 0 0 0 0 0 0 0 -0 0 0 0 -0 -0 0 0 0 0 0 -0 -0 -0 -0 -0 -0 -0 -0 -0 -0 -0 -0 -0 -0 -0 -0
0 0 0 0 0 0 0 0 0 0 0 0 0 0 0 0 -0 -0 0 0 0 0 0 0 0 0 0 -0 -0 -0 -0 -0 -0 -0 -0 0 -0 -0 -0 -0 -0 0 0 0
0 0 0 0 0 0 0 0 0 0 0 0 0 0 -0 -0 0 0 0 0 0 0 0 0 -0 -0 -0 -0 -0 -0 -0 0 0 0 0 0 0 0 -0 0 -0 -0 -0 0
0 0 0 0 0 0 0 0 0 0 0 0 0 0 -0 -0 0 0 0 0 0 0 -0 -0 -0 -0 0 -0 0 0 0 0 0 0 0 0 0 -0 -0 -0 -0 -0 0 0
0 0 0 0 0 0 0 0 0 0 0 0 0 -0 -0 -0 -0 0 -0 0 0 0 0 0 0 0 0 0 0 0 0 0 0 0 0 0 -0 0 0 0 0 0 0 0
0 0 0 0 0 0 0 0 0 0 0 0 -0 -0 0 0 -0 -0 -0 -0 0 0 0 0 0 0 0 0 0 0 0 0 0 0 0 0 0 0 0 0 0 0 0 0
0 0 0 0 0 0 0 0 0 0 -0 -0 0 0 0 0 0 -0 -0 -0 0 0 0 0 0 0 0 0 0 0 0 0 0 0 0 0 0 0 0 0 0 0 0 0
0 0 0 0 0 0 0 0 -0 -0 0 0 0 0 0 0 0 -0 -0 0 0 0 0 0 0 0 0 0 0 0 0 0 0 0 0 0 0 0 0 0 0 0 0 0
0 0 0 0 0 0 0 -0 -0 0 0 0 0 0 0 0 -0 0 0 0 0 0 0 0 0 0 0 0 0 0 0 0 0 0 0 0 0 0 0 0 0 0 0 0
0 0 0 0 0 0 -0 -0 -0 0 0 0 0 0 0 0 0 0 0 0 0 0 0 0 0 0 0 0 0 0 0 0 0 0 0 0 0 0 0 0 0 0 0 0
0 0 0 0 0 0 -0 -0 -0 -0 0 0 0 0 0 0 0 0 0 0 0 0 0 0 0 0 0 0 0 0 0 0 0 0 0 0 0 0 0 0 0 0 0 0
0 0 0 0 -0 -0 -0 0 -0 0 0 0 0 0 0 0 0 0 0 0 0 0 0 0 0 0 0 0 0 0 0 0 0 0 0 0 0 0 0 0 0 0 0 0
0 0 0 0 -0 -0 0 -0 -0 0 0 0 0 0 0 0 0 0 0 0 0 0 0 0 0 0 0 0 0 0 0 0 0 0 0 0 0 0 0 0 0 0 0 0
0 0 0 -0 -0 -0 -0 -0 0 0 0 0 0 0 0 0 0 0 0 0 0 0 0 0 0 0 0 0 0 0 0 0 0 0 0 0 0 0 0 0 0 0 0 0
0 0 0 -0 -0 -0 -0 -0 0 0 0 0 0 0 0 0 0 0 0 0 0 0 0 0 0 0 0 0 0 0 0 0 0 0 0 0 0 0 0 0 0 0 0 0
0 0 -0 -0 -0 -0 -0 0 0 0 0 0 0 0 0 0 0 0 0 0 0 0 0 0 0 0 0 0 0 0 0 0 0 0 0 0 0 0 0 0 0 0 0 0
0 -0 -0 -0 -0 -0 -0 0 0 0 0 0 0 0 0 0 0 0 0 0 0 0 0 0 0 0 0 0 0 0 0 0 0 0 0 0 0 0 0 0 0 0 0 0
0 -0 -0 -0 -0 -0 0 0 0 0 0 0 0 0 0 0 0 0 0 0 0 0 0 0 0 0 0 0 0 0 0 0 0 0 0 0 0 0 0 0 0 0 0 0
Wind_Speed_500mb
3 3 5 11 10 10 17 13 11 7 19 26 9 10 18 29 34 35 42 46 48 42 42 44 53 54 56 56 51 44 44 38 38 34 38 32 31 32 23 18 18 20 19 18
4 2 7 16 12 15 22 16 23 20 19 4 10 17 27 40 42 44 47 49 50 46 42 49 46 55 58 50 40 42 37 32 33 39 27 27 28 19 13 15 19 23 24 24
5 3 11 15 1 5 5 7 6 10 15 7 16 30 38 44 45 46 48 51 53 44 39 40 50 54 47 38 37 33 22 29 26 18 23 26 25 32 34 30 25 22 22 22
3 5 7 6 6 8 8 9 10 15 14 15 31 31 39 39 36 38 49 50 48 44 45 44 50 42 34 31 30 30 28 18 17 20 25 24 23 26 28 28 27 28 28 26
2 4 8 4 6 3 3 8 9 13 12 34 40 39 43 21 36 46 50 52 51 48 39 41 42 38 20 25 28 18 19 25 25 23 21 22 24 22 22 25 26 24 25 24
6 4 6 7 8 2 5 11 10 8 28 37 38 26 25 43 49 53 56 56 55 46 37 37 36 20 18 20 13 23 26 26 20 17 22 21 21 20 24 26 23 23 24 24
5 5 9 4 3 2 6 9 16 17 25 26 20 30 46 49 54 52 50 49 43 35 26 30 16 13 9 14 29 26 23 23 16 25 28 29 34 22 24 28 38 27 26 26
5 5 8 3 5 6 9 19 16 22 18 23 30 39 46 50 49 46 51 46 41 36 24 16 8 10 27 32 24 24 23 23 27 29 32 29 26 24 21 21 31 31 31 26
9 2 3 5 4 17 22 20 18 18 17 25 35 41 44 44 44 40 42 38 31 27 24 22 21 38 34 25 28 26 24 17 28 30 29 28 26 29 33 27 29 31 34 28
4 5 9 8 17 18 15 15 18 18 24 31 35 38 40 37 37 36 35 31 24 23 23 35 41 34 28 32 24 23 24 28 25 24 27 30 25 25 23 24 23 28 32 27
8 17 15 8 13 17 15 15 15 23 30 32 34 35 33 37 33 32 26 20 20 21 34 36 35 36 30 26 23 24 24 24 24 27 29 30 33 28 27 24 23 24 29 32
3 6 8 13 19 12 8 13 22 30 32 31 29 31 31 31 32 21 14 16 19 32 36 32 32 28 22 20 18 19 19 23 22 25 30 23 24 31 34 25 22 28 33 30
8 9 11 6 8 12 14 22 28 29 27 31 26 28 25 34 21 9 16 18 26 33 36 28 24 23 26 21 17 14 14 20 22 22 20 15 14 19 22 27 27 30 31 25
7 4 6 14 8 21 25 28 26 25 28 25 25 19 25 20 21 22 21 25 34 38 33 28 28 27 18 14 9 10 15 17 26 24 22 23 19 16 22 24 30 30 27 23
20 19 15 15 19 24 24 23 27 27 26 23 14 21 18 18 26 22 28 39 42 38 36 29 19 10 12 15 19 11 10 21 27 25 24 26 25 24 29 34 34 30 32 34
12 16 20 24 23 24 25 26 24 27 24 17 17 16 15 19 23 30 41 43 40 33 22 14 18 24 26 30 31 35 34 28 24 27 26 25 22 23 27 33 35 38 35 34
11 22 24 22 26 27 23 20 22 19 14 14 17 15 20 22 33 42 46 41 32 18 19 22 24 29 34 35 38 34 27 26 27 26 26 27 30 31 31 37 40 43 43 42
23 23 20 20 23 20 19 22 17 12 13 15 14 17 20 29 43 47 42 31 22 16 19 22 24 24 27 31 29 29 31 30 30 30 30 34 39 37 38 42 48 44 52 50
22 23 22 20 18 16 19 16 13 13 13 14 18 18 26 47 44 42 31 22 17 21 23 24 21 21 26 30 33 34 32 33 33 32 34 39 45 38 42 54 52 49 51 55
20 24 22 19 16 18 14 12 11 12 15 17 21 38 48 46 42 31 23 18 21 26 26 21 19 20 24 34 35 33 34 33 33 34 37 39 43 39 46 50 51 52 55 58
20 24 21 18 19 13 12 10 13 14 19 21 34 46 38 41 34 25 18 20 24 25 20 21 24 24 31 33 32 31 32 33 38 41 46 49 47 45 44 46 50 52 53 52
19 20 18 18 17 11 12 13 15 19 20 27 44 37 41 34 28 19 17 20 24 23 29 32 33 33 33 30 32 35 35 36 40 43 45 46 47 47 49 50 50 51 51 53
15 17 15 15 11 9 10 14 17 22 22 32 43 34 36 31 22 15 17 21 23 27 28 30 34 33 31 33 34 36 38 40 41 43 43 44 45 46 45 45 44 43 44 46
14 16 14 14 10 7 11 17 21 25 25 36 37 35 34 26 17 14 19 25 28 24 24 29 32 31 32 34 35 36 39 42 44 45 44 43 41 40 39 38 41 46 51 52
12 15 12 11 8 8 15 23 26 29 33 35 34 35 31 22 16 18 26 30 24 21 26 31 30 28 31 33 35 39 42 43 44 45 45 45 45 44 46 48 50 51 51 52
9 14 13 10 7 9 20 27 29 35 35 36 36 37 30 21 17 25 29 23 19 23 27 29 28 27 31 33 36 40 42 44 45 47 47 47 47 48 49 49 49 49 48 48
7 12 14 8 6 10 26 27 32 38 36 37 40 39 31 22 22 24 21 19 22 24 25 29 28 28 30 32 36 40 43 44 44 45 47 47 47 47 47 47 48 49 49 49
Wind_Direction_500mb
276 257 243 264 241 224 221 239 239 296 302 322 319 282 291 296 302 305 310 314 313 299 299 307 317 325 325 326 328 331 334 333 330 334 331 338 345 350 357 8 31 25 21 46
268 309 262 267 257 236 248 252 245 274 293 262 280 284 296 306 316 312 316 317 317 304 300 313 323 324 326 327 328 332 337 334 329 333 350 1 359 355 1 352 359 60 43 38
259 335 297 263 139 219 245 206 254 287 335 300 308 321 317 319 316 313 317 319 317 312 313 317 323 326 325 333 336 342 337 336 347 19 25 34 26 51 48 51 48 40 38 40
271 278 242 82 338 264 279 274 248 277 280 296 319 318 311 317 319 322 321 321 319 313 311 317 324 326 328 338 348 348 348 12 48 59 43 34 37 35 38 40 48 53 50 50
242 235 316 143 183 187 319 307 323 283 294 322 324 320 315 333 332 324 322 319 313 313 310 319 325 327 337 345 345 9 55 67 55 51 43 38 40 44 39 47 57 57 55 51
175 237 280 63 150 90 178 300 37 331 315 318 325 319 326 334 330 326 323 320 315 311 309 318 326 342 345 345 34 81 71 59 41 29 39 43 45 51 61 50 49 50 49 49
177 241 287 36 175 172 289 358 331 319 316 315 311 310 316 327 328 330 333 337 335 331 324 320 344 2 12 66 96 76 50 46 49 65 57 45 56 64 61 46 54 54 47 46
149 203 274 63 141 255 346 315 307 319 317 313 315 320 325 329 333 339 348 347 346 336 349 358 21 69 98 100 73 57 56 59 66 60 61 47 51 43 46 51 62 47 35 36
210 242 163 220 298 295 294 286 308 314 315 321 322 324 329 333 340 347 354 353 5 22 33 54 90 110 97 74 71 66 66 56 67 66 58 54 55 50 51 72 53 42 38 42
249 177 240 273 276 317 307 297 306 309 320 323 323 327 332 333 340 346 359 5 28 49 66 94 101 90 76 77 71 71 73 80 57 61 50 42 47 53 54 48 39 40 38 42
279 289 284 286 343 335 319 312 313 320 325 328 327 328 327 333 340 345 358 24 54 79 107 98 84 82 83 82 77 78 71 57 51 49 46 37 46 54 50 47 46 39 34 43
276 348 285 322 334 346 343 327 326 326 330 333 330 326 328 331 336 350 18 69 86 117 106 91 95 92 91 82 75 65 64 48 49 39 25 29 48 55 57 56 42 38 33 42
272 299 309 328 16 356 337 329 328 336 342 335 337 329 334 334 350 61 95 104 116 115 108 97 87 79 66 68 78 72 51 36 31 13 25 43 49 53 62 46 37 32 39 49
16 35 111 36 1 341 331 330 341 349 345 343 337 353 358 28 88 105 108 114 122 111 99 88 75 68 55 41 33 18 24 13 12 32 48 69 56 59 43 33 33 46 52 46
74 55 40 5 344 340 348 353 355 355 354 354 12 11 42 77 104 107 112 121 115 106 97 90 83 51 6 4 351 349 23 44 54 52 57 61 50 57 49 59 49 72 55 58
63 33 13 1 0 1 5 2 1 357 357 12 27 50 66 103 107 110 121 121 114 106 95 72 17 15 43 53 61 72 67 57 55 60 63 65 57 65 59 53 61 65 82 65
31 11 5 7 7 11 10 5 354 359 18 39 43 81 108 115 115 124 123 119 110 94 53 31 36 52 55 60 60 60 59 57 56 64 66 68 70 74 67 69 67 73 77 73
27 15 9 12 8 6 5 356 9 37 48 45 77 107 120 124 131 126 121 114 100 58 38 47 61 59 57 54 48 55 65 67 65 66 73 82 87 81 77 70 81 82 76 78
20 12 10 20 14 3 355 16 44 67 73 82 105 113 128 135 132 124 119 100 59 44 52 68 69 62 56 55 56 64 68 68 68 70 76 88 96 89 81 83 79 83 80 71
13 8 10 23 15 6 24 41 87 88 95 101 115 126 133 132 130 120 108 69 48 54 64 62 66 62 61 63 63 67 66 67 74 81 84 91 94 87 80 77 81 81 75 72
10 5 11 21 15 26 46 75 110 110 111 118 131 136 135 131 127 117 87 49 57 66 56 57 65 78 73 65 67 70 71 74 80 92 96 101 101 96 91 89 85 81 79 77
7 6 19 21 16 52 63 108 125 127 117 128 142 139 142 131 122 103 67 59 71 65 74 81 82 79 74 72 73 74 75 77 84 94 101 101 99 96 95 94 90 85 81 80
4 10 27 22 36 70 93 124 136 142 130 142 146 144 146 135 118 91 64 73 80 82 85 82 75 76 78 79 78 77 77 79 85 94 103 106 104 101 97 93 88 83 83 85
10 13 27 28 41 91 126 141 148 150 144 148 150 150 146 133 114 80 75 84 87 92 85 80 79 78 82 82 84 83 80 81 85 93 99 106 104 103 99 94 91 90 88 88
13 14 27 32 50 109 142 151 155 154 149 152 156 154 148 136 114 92 95 94 96 88 90 87 80 82 86 89 89 88 85 85 87 93 97 100 102 101 99 98 96 93 90 88
18 22 22 39 73 132 153 155 160 156 157 162 160 155 148 134 113 106 103 93 88 93 95 90 86 89 94 93 92 91 89 87 88 91 95 98 100 101 100 98 97 93 88 86
11 17 24 50 97 139 157 158 161 162 162 166 164 158 150 137 124 116 105 87 98 99 98 97 94 98 96 95 96 99 98 96 95 95 95 96 97 97 98 96 94 91 90 89
Wind_Speed_850mb
3 3 5 11 10 10 17 13 11 7 19 26 9 10 18 29 34 35 42 46 48 42 42 44 53 54 56 56 51 44 44 38 38 34 38 32 31 32 23 18 18 20 19 18
4 2 7 16 12 15 22 16 23 20 19 4 10 17 27 40 42 44 47 49 50 46 42 49 46 55 58 50 40 42 37 32 33 39 27 27 28 19 13 15 19 23 24 24
5 3 11 15 1 5 5 7 6 10 15 7 16 30 38 44 45 46 48 51 53 44 39 40 50 54 47 38 37 33 22 29 26 18 23 26 25 32 34 30 25 22 22 22
3 5 7 6 6 8 8 9 10 15 14 15 31 31 39 39 36 38 49 50 48 44 45 44 50 42 34 31 30 30 28 18 17 20 25 24 23 26 28 28 27 28 28 26
2 4 8 4 6 3 3 8 9 13 12 34 40 39 43 21 36 46 50 52 51 48 39 41 42 38 20 25 28 18 19 25 25 23 21 22 24 22 22 25 26 24 25 24
6 4 6 7 8 2 5 11 10 8 28 37 38 26 25 43 49 53 56 56 55 46 37 37 36 20 18 20 13 23 26 26 20 17 22 21 21 20 24 26 23 23 24 24
5 5 9 4 3 2 6 9 16 17 25 26 20 30 46 49 54 52 50 49 43 35 26 30 16 13 9 14 29 26 23 23 16 25 28 29 34 22 24 28 38 27 26 26
5 5 8 3 5 6 9 19 16 22 18 23 30 39 46 50 49 46 51 46 41 36 24 16 8 10 27 32 24 24 23 23 27 29 32 29 26 24 21 21 31 31 31 26
9 2 3 5 4 17 22 20 18 18 17 25 35 41 44 44 44 40 42 38 31 27 24 22 21 38 34 25 28 26 24 17 28 30 29 28 26 29 33 27 29 31 34 28
4 5 9 8 17 18 15 15 18 18 24 31 35 38 40 37 37 36 35 31 24 23 23 35 41 34 28 32 24 23 24 28 25 24 27 30 25 25 23 24 23 28 32 27
8 17 15 8 13 17 15 15 15 23 30 32 34 35 33 37 33 32 26 20 20 21 34 36 35 36 30 26 23 24 24 24 24 27 29 30 33 28 27 24 23 24 29 32
3 6 8 13 19 12 8 13 22 30 32 31 29 31 31 31 32 21 14 16 19 32 36 32 32 28 22 20 18 19 19 23 22 25 30 23 24 31 34 25 22 28 33 30
8 9 11 6 8 12 14 22 28 29 27 31 26 28 25 34 21 9 16 18 26 33 36 28 24 23 26 21 17 14 14 20 22 22 20 15 14 19 22 27 27 30 31 25
7 4 6 14 8 21 25 28 26 25 28 25 25 19 25 20 21 22 21 25 34 38 33 28 28 27 18 14 9 10 15 17 26 24 22 23 19 16 22 24 30 30 27 23
20 19 15 15 19 24 24 23 27 27 26 23 14 21 18 18 26 22 28 39 42 38 36 29 19 10 12 15 19 11 10 21 27 25 24 26 25 24 29 34 34 30 32 34
12 16 20 24 23 24 25 26 24 27 24 17 17 16 15 19 23 30 41 43 40 33 22 14 18 24 26 30 31 35 34 28 24 27 26 25 22 23 27 33 35 38 35 34
11 22 24 22 26 27 23 20 22 19 14 14 17 15 20 22 33 42 46 41 32 18 19 22 24 29 34 35 38 34 27 26 27 26 26 27 30 31 31 37 40 43 43 42
23 23 20 20 23 20 19 22 17 12 13 15 14 17 20 29 43 47 42 31 22 16 19 22 24 24 27 31 29 29 31 30 30 30 30 34 39 37 38 42 48 44 52 50
22 23 22 20 18 16 19 16 13 13 13 14 18 18 26 47 44 42 31 22 17 21 23 24 21 21 26 30 33 34 32 33 33 32 34 39 45 38 42 54 52 49 51 55
20 24 22 19 16 18 14 12 11 12 15 17 21 38 48 46 42 31 23 18 21 26 26 21 19 20 24 34 35 33 34 33 33 34 37 39 43 39 46 50 51 52 55 58
20 24 21 18 19 13 12 10 13 14 19 21 34 46 38 41 34 25 18 20 24 25 20 21 24 24 31 33 32 31 32 33 38 41 46 49 47 45 44 46 50 52 53 52
19 20 18 18 17 11 12 13 15 19 20 27 44 37 41 34 28 19 17 20 24 23 29 32 33 33 33 30 32 35 35 36 40 43 45 46 47 47 49 50 50 51 51 53
15 17 15 15 11 9 10 14 17 22 22 32 43 34 36 31 22 15 17 21 23 27 28 30 34 33 31 33 34 36 38 40 41 43 43 44 45 46 45 45 44 43 44 46
14 16 14 14 10 7 11 17 21 25 25 36 37 35 34 26 17 14 19 25 28 24 24 29 32 31 32 34 35 36 39 42 44 45 44 43 41 40 39 38 41 46 51 52
12 15 12 11 8 8 15 23 26 29 33 35 34 35 31 22 16 18 26 30 24 21 26 31 30 28 31 33 35 39 42 43 44 45 45 45 45 44 46 48 50 51 51 52
9 14 13 10 7 9 20 27 29 35 35 36 36 37 30 21 17 25 29 23 19 23 27 29 28 27 31 33 36 40 42 44 45 47 47 47 47 48 49 49 49 49 48 48
7 12 14 8 6 10 26 27 32 38 36 37 40 39 31 22 22 24 21 19 22 24 25 29 28 28 30 32 36 40 43 44 44 45 47 47 47 47 47 47 48 49 49 49
Wind_Direction_850mb
276 257 243 264 241 224 221 239 239 296 302 322 319 282 291 296 302 305 310 314 313 299 299 307 317 325 325 326 328 331 334 333 330 334 331 338 345 350 357 8 31 25 21 46
268 309 262 267 257 236 248 252 245 274 293 262 280 284 296 306 316 312 316 317 317 304 300 313 323 324 326 327 328 332 337 334 329 333 350 1 359 355 1 352 359 60 43 38
259 335 297 263 139 219 245 206 254 287 335 300 308 321 317 319 316 313 317 319 317 312 313 317 323 326 325 333 336 342 337 336 347 19 25 34 26 51 48 51 48 40 38 40
271 278 242 82 338 264 279 274 248 277 280 296 319 318 311 317 319 322 321 321 319 313 311 317 324 326 328 338 348 348 348 12 48 59 43 34 37 35 38 40 48 53 50 50
242 235 316 143 183 187 319 307 323 283 294 322 324 320 315 333 332 324 322 319 313 313 310 319 325 327 337 345 345 9 55 67 55 51 43 38 40 44 39 47 57 57 55 51
175 237 280 63 150 90 178 300 37 331 315 318 325 319 326 334 330 326 323 320 315 311 309 318 326 342 345 345 34 81 71 59 41 29 39 43 45 51 61 50 49 50 49 49
177 241 287 36 175 172 289 358 331 319 316 315 311 310 316 327 328 330 333 337 335 331 324 320 344 2 12 66 96 76 50 46 49 65 57 45 56 64 61 46 54 54 47 46
149 203 274 63 141 255 346 315 307 319 317 313 315 320 325 329 333 339 348 347 346 336 349 358 21 69 98 100 73 57 56 59 66 60 61 47 51 43 46 51 62 47 35 36
210 242 163 220 298 295 294 286 308 314 315 321 322 324 329 333 340 347 354 353 5 22 33 54 90 110 97 74 71 66 66 56 67 66 58 54 55 50 51 72 53 42 38 42
249 177 240 273 276 317 307 297 306 309 320 323 323 327 332 333 340 346 359 5 28 49 66 94 101 90 76 77 71 71 73 80 57 61 50 42 47 53 54 48 39 40 38 42
279 289 284 286 343 335 319 312 313 320 325 328 327 328 327 333 340 345 358 24 54 79 107 98 84 82 83 82 77 78 71 57 51 49 46 37 46 54 50 47 46 39 34 43
276 348 285 322 334 346 343 327 326 326 330 333 330 326 328 331 336 350 18 69 86 117 106 91 95 92 91 82 75 65 64 48 49 39 25 29 48 55 57 56 42 38 33 42
272 299 309 328 16 356 337 329 328 336 342 335 337 329 334 334 350 61 95 104 116 115 108 97 87 79 66 68 78 72 51 36 31 13 25 43 49 53 62 46 37 32 39 49
16 35 111 36 1 341 331 330 341 349 345 343 337 353 358 28 88 105 108 114 122 111 99 88 75 68 55 41 33 18 24 13 12 32 48 69 56 59 43 33 33 46 52 46
74 55 40 5 344 340 348 353 355 355 354 354 12 11 42 77 104 107 112 121 115 106 97 90 83 51 6 4 351 349 23 44 54 52 57 61 50 57 49 59 49 72 55 58
63 33 13 1 0 1 5 2 1 357 357 12 27 50 66 103 107 110 121 121 114 106 95 72 17 15 43 53 61 72 67 57 55 60 63 65 57 65 59 53 61 65 82 65
31 11 5 7 7 11 10 5 354 359 18 39 43 81 108 115 115 124 123 119 110 94 53 31 36 52 55 60 60 60 59 57 56 64 66 68 70 74 67 69 67 73 77 73
27 15 9 12 8 6 5 356 9 37 48 45 77 107 120 124 131 126 121 114 100 58 38 47 61 59 57 54 48 55 65 67 65 66 73 82 87 81 77 70 81 82 76 78
20 12 10 20 14 3 355 16 44 67 73 82 105 113 128 135 132 124 119 100 59 44 52 68 69 62 56 55 56 64 68 68 68 70 76 88 96 89 81 83 79 83 80 71
13 8 10 23 15 6 24 41 87 88 95 101 115 126 133 132 130 120 108 69 48 54 64 62 66 62 61 63 63 67 66 67 74 81 84 91 94 87 80 77 81 81 75 72
10 5 11 21 15 26 46 75 110 110 111 118 131 136 135 131 127 117 87 49 57 66 56 57 65 78 73 65 67 70 71 74 80 92 96 101 101 96 91 89 85 81 79 77
7 6 19 21 16 52 63 108 125 127 117 128 142 139 142 131 122 103 67 59 71 65 74 81 82 79 74 72 73 74 75 77 84 94 101 101 99 96 95 94 90 85 81 80
4 10 27 22 36 70 93 124 136 142 130 142 146 144 146 135 118 91 64 73 80 82 85 82 75 76 78 79 78 77 77 79 85 94 103 106 104 101 97 93 88 83 83 85
10 13 27 28 41 91 126 141 148 150 144 148 150 150 146 133 114 80 75 84 87 92 85 80 79 78 82 82 84 83 80 81 85 93 99 106 104 103 99 94 91 90 88 88
13 14 27 32 50 109 142 151 155 154 149 152 156 154 148 136 114 92 95 94 96 88 90 87 80 82 86 89 89 88 85 85 87 93 97 100 102 101 99 98 96 93 90 88
18 22 22 39 73 132 153 155 160 156 157 162 160 155 148 134 113 106 103 93 88 93 95 90 86 89 94 93 92 91 89 87 88 91 95 98 100 101 100 98 97 93 88 86
11 17 24 50 97 139 157 158 161 162 162 166 164 158 150 137 124 116 105 87 98 99 98 97 94 98 96 95 96 99 98 96 95 95 95 96 97 97 98 96 94 91 90 89